User: anonymous   Login
Location: Berlin
(52.5200°N, 13.4050°E)
Time: 20:53:47
(UTC+02:00)
Language:

ISS - Orbit

View from above orbital plane
View from above orbital plane
View from above satellite
View from above satellite

Ground track
Ground track

The orbit data is extracted from the following two-line orbital elements,

1 25544U 98067A   24147.31178333  .00023596  00000-0  41267-3 0  9995
2 25544  51.6395  63.7493 0005553 242.0182 264.7214 15.50501544455156
Epoch (UTC): 26 May 2024 07:28:58
Eccentricity: 0.0005553
inclination: 51.6395°
perigee height: 411 km
apogee height: 419 km
right ascension of ascending node: 63.7493°
argument of perigee: 242.0182°
revolutions per day: 15.50501544
mean anomaly at epoch: 264.7214°
orbit number at epoch: 45515

The dashed part of the orbit path shows where the satellite is in the earth's shadow,  

DLR